Flag for Czech Republic Weather past 2 weeks in Prague, Czech Republic

Now
37 °F

Passing clouds.


Feels Like: 27 °F
Forecast: 40 / 46 °F
Wind: 21 mph from West

Location: Prague Ruzyne Airport

Current Time: Dec 21, 2014 at 1:05:03 AM

Latest Report: Dec 21, 2014 at 12:30 AM


Visibility: N/A

Pressure: 30.07 "Hg

Humidity: 81%

Dew point: 32 °F

Location of PragueLocation

Historic Weather in Prague — Graph

°F

Prague temperature yesterday

Maximum temperature yesterday: 45 °F (at 12:00 AM)
Minimum temperature yesterday: 34 °F (at 8:00 AM)
Average temperature yesterday: 38 °F

Past Weeks' High & Low Weather Summary

 TemperatureHumidityPressure
High52 °F (Dec 19, 12:30 AM)100% (Dec 6, 12:00 AM)30.42 "Hg (Dec 6, 12:00 AM)
Low27 °F (Dec 9, 1:30 AM)61% (Dec 12, 5:30 PM)29.65 "Hg (Dec 12, 5:30 PM)
Average40 °F84%29.98 "Hg
* Reported Midnight between Dec 5 and Dec 6 — Dec 21 12:03 AM, Prague, Weather by CustomWeather, © 2014

Note: Actual official high and low records may vary slightly from our data, if they occured in-between our weather recording intervals... More about our weather records

Advertising

Prague weather history for previous 24 hours

 ConditionsComfort  
Time TempWeatherWind HumidityBarometerVisibility
12:03 AM
Dec 21
37 °FLight rain. Partly cloudy.23 mph81%30.09 "HgN/A
11:30 PM
Dec 20
37 °FPassing clouds.18 mph81%30.04 "HgN/A
11:00 PM37 °FPassing clouds.14 mph87%30.04 "HgN/A
10:30 PM37 °FPassing clouds.15 mph87%30.01 "HgN/A
10:00 PM36 °FPassing clouds.14 mph87%30.01 "HgN/A
9:30 PM36 °FPassing clouds.20 mph87%30.01 "HgN/A
9:00 PM39 °FLight rain. Passing clouds.30 mph81%29.98 "HgN/A
8:30 PM39 °FLight rain. Passing clouds.25 mph81%29.95 "HgN/A
8:00 PM39 °FLight rain. Mostly cloudy.23 mph75%29.95 "HgN/A
7:30 PM39 °FLight rain. Passing clouds.23 mph75%29.95 "HgN/A
7:00 PM39 °FLight rain. Passing clouds.23 mph75%29.95 "HgN/A
6:30 PM39 °FLight rain. Passing clouds.23 mph81%29.95 "HgN/A
6:00 PM39 °FLight rain. Passing clouds.28 mph75%29.95 "HgN/A
5:30 PM39 °FClear.29 mph75%29.95 "Hg10 mi
5:00 PM39 °FPassing clouds.25 mph70%29.95 "HgN/A
4:30 PM39 °FPassing clouds.22 mph70%29.95 "HgN/A
4:04 PM39 °FPassing clouds.23 mph70%29.95 "HgN/A
4:00 PM39 °FPartly sunny.23 mph70%29.98 "HgN/A
3:30 PM39 °FScattered clouds.21 mph70%29.98 "HgN/A
3:00 PM39 °FPartly sunny.23 mph70%29.98 "HgN/A
2:30 PM39 °FPartly sunny.18 mph70%30.01 "HgN/A
2:00 PM39 °FPartly sunny.23 mph70%30.01 "HgN/A
1:30 PM39 °FScattered clouds.25 mph70%30.01 "HgN/A
1:00 PM39 °FScattered clouds.23 mph70%30.01 "HgN/A
12:30 PM39 °FScattered clouds.23 mph70%30.04 "HgN/A
12:00 PM39 °FScattered clouds.23 mph70%30.04 "HgN/A
11:30 AM41 °FPartly sunny.23 mph70%30.04 "HgN/A
11:00 AM41 °FPartly sunny.20 mph70%30.07 "HgN/A
10:30 AM39 °FScattered clouds.22 mph75%30.07 "HgN/A
10:00 AM39 °FPassing clouds.23 mph75%30.07 "HgN/A
9:30 AM37 °FPassing clouds.17 mph81%30.09 "HgN/A
9:00 AM37 °FPassing clouds.15 mph75%30.09 "HgN/A
8:30 AM36 °FPassing clouds.12 mph81%30.09 "HgN/A
8:00 AM34 °FSunny.14 mph87%30.09 "Hg10 mi
7:30 AM36 °FClear.13 mph81%30.09 "Hg10 mi
7:00 AM36 °FClear.14 mph81%30.09 "Hg10 mi
6:30 AM36 °FClear.15 mph81%30.09 "Hg10 mi
6:00 AM36 °FClear.14 mph81%30.07 "Hg10 mi
5:30 AM36 °FClear.17 mph81%30.07 "Hg10 mi
5:00 AM36 °FClear.15 mph81%30.07 "Hg10 mi
4:30 AM37 °FClear.17 mph75%30.07 "Hg10 mi
4:00 AM37 °FPassing clouds.14 mph81%30.07 "HgN/A
3:30 AM37 °FPassing clouds.15 mph81%30.07 "HgN/A
3:00 AM37 °FPassing clouds.10 mph81%30.04 "HgN/A
2:30 AM39 °FPassing clouds.15 mph75%30.04 "HgN/A
2:00 AM41 °FPassing clouds.15 mph70%30.04 "HgN/A
1:30 AM41 °FPassing clouds.13 mph76%30.01 "HgN/A
1:00 AM41 °FPassing clouds.18 mph76%30.01 "HgN/A
Weather by CustomWeather, © 2014

See weather overviewHow to use our weather pages